Location: Chanteloup
(48.8560°N, 2.7390°E)
Time: 22:57:00
(UTC+00:00)

Cosmos 2322 Rocket - Pass Details

Date: 30 May 2022
Orbit: 833 x 851 km, 71.0° (Epoch: 06 July)

Event Time Altitude Azimuth Distance (km) Brightness Sun altitude
Rises 22:58:15 0° 244° (WSW) 3,373 5.2 -18.4°
Reaches altitude 10° 23:01:02 10° 255° (WSW) 2,442 4.6 -18.5°
Maximum altitude 23:05:48 28° 314° (NW) 1,524 4.1 -18.7°
Drops below altitude 10° 23:10:36 10° 13° (NNE) 2,455 5.6 -18.8°
Sets 23:13:24 0° 25° (NNE) 3,394 6.3 -18.9°
